Lid_Strength_Index
1 1 1 1 1 1 1 1 2 2 3 3 3 3 3 3 2 4 6 3 4 7 7 5 5 7 7 8 10 8 9 9 12 12 14 15 18 14 15 13 14 14 16 19 19 21 18 11 11 13 11 10 9 9
1 1 1 2 2 2 2 2 3 3 3 3 3 3 3 3 3 4 7 4 2 5 5 3 5 4 5 5 6 7 8 9 8 11 13 14 17 18 15 16 12 14 13 14 14 14 11 10 10 9 9 9 9 9
4 3 3 3 3 3 3 3 3 3 3 3 3 3 3 3 3 4 5 4 3 5 6 6 7 4 4 4 3 7 7 6 7 7 10 12 14 14 16 15 13 12 11 14 13 11 10 9 8 8 8 9 8 8
4 4 4 3 3 4 4 4 4 4 4 4 4 3 3 3 3 3 4 2 2 5 9 7 2 4 2 3 3 3 5 5 6 7 11 13 14 11 15 12 13 12 11 12 13 10 9 8 8 9 9 9 9 10
3 3 3 3 4 4 4 4 4 4 4 4 4 3 3 2 2 3 3 1 1 5 9 8 6 4 4 4 4 4 4 6 9 11 14 13 12 12 15 12 15 11 11 13 13 10 9 9 9 9 9 10 10 10
3 3 3 3 3 4 4 4 4 4 4 4 3 2 2 2 2 3 6 1 0 2 6 11 6 6 4 4 5 5 5 6 8 10 12 10 8 10 13 14 10 9 9 9 9 8 9 10 10 10 11 11 11 11
3 3 3 3 3 3 3 4 4 3 3 3 2 2 2 2 3 5 6 4 0 1 6 11 12 8 4 5 7 7 6 7 7 9 12 11 10 10 16 14 10 9 9 9 10 10 11 10 11 11 11 12 11 12
2 2 3 3 3 3 3 3 3 3 3 3 3 2 2 2 1 3 2 2 1 4 5 10 11 10 5 9 9 7 10 9 8 10 12 13 11 15 14 11 10 10 10 10 11 10 10 11 11 12 12 12 13 14
2 2 2 2 2 3 2 2 2 3 2 2 2 2 3 4 5 5 1 1 1 4 9 9 12 13 7 9 9 11 11 13 9 13 12 12 14 14 13 11 11 11 10 12 12 12 11 12 13 13 13 13 14 14
2 2 2 2 2 2 2 2 3 2 2 2 2 5 8 5 1 1 3 5 6 5 6 11 9 13 8 12 11 12 12 13 15 13 11 14 14 13 12 11 11 11 11 12 14 14 14 14 14 14 14 14 14 14
2 1 1 1 1 1 1 1 1 1 1 3 5 6 3 1 3 6 11 10 9 11 10 11 11 11 8 13 13 12 13 14 14 13 12 14 14 13 11 11 10 11 11 10 11 12 12 13 14 15 15 15 15 14
1 1 1 1 1 1 1 1 0 1 4 4 3 3 3 7 10 11 12 12 12 12 11 11 10 9 11 9 13 13 14 14 15 12 13 14 14 13 12 12 12 12 12 12 11 12 13 13 13 14 15 15 15 16
4 3 2 3 3 3 2 2 2 2 2 3 6 9 10 12 13 15 15 14 13 13 12 12 13 12 12 11 14 14 14 15 13 14 15 15 13 13 13 12 13 12 12 12 12 12 13 14 14 15 15 16 16 16
3 3 3 4 3 3 3 4 3 3 5 10 11 15 14 15 15 15 14 14 13 14 13 13 13 13 14 13 14 15 15 14 16 18 18 15 14 14 13 13 13 14 14 14 14 14 15 16 16 16 16 16 16 16
4 3 4 4 4 4 4 4 5 6 10 12 13 16 15 13 13 13 14 13 13 12 13 13 13 12 14 14 15 15 16 18 17 18 16 14 13 13 13 14 14 14 15 15 15 16 16 16 16 17 16 16 16 17
5 5 5 5 4 5 6 6 7 9 12 13 14 15 14 15 15 15 14 14 12 13 12 12 13 13 14 16 18 20 18 21 18 16 14 14 14 14 14 14 14 14 14 14 15 15 16 16 17 17 17 17 18 18
6 7 5 5 6 6 6 8 11 13 14 15 15 15 15 15 16 16 15 14 12 12 14 14 17 18 15 18 21 19 20 18 16 15 14 14 14 15 14 14 15 14 15 15 15 15 16 16 16 17 18 18 17 18
9 7 6 6 6 7 8 9 13 13 14 14 16 16 16 16 17 17 16 14 13 13 15 17 16 21 23 23 23 20 19 18 15 15 14 14 14 13 14 14 14 15 15 15 15 16 16 16 16 16 17 17 17 17
8 8 6 6 7 9 12 12 12 16 16 15 15 15 16 16 16 16 16 15 14 14 16 18 21 22 22 20 20 20 19 19 16 17 17 16 14 14 14 14 14 15 15 15 16 17 17 16 17 17 16 17 18 18
8 8 7 6 7 12 13 13 11 14 15 16 16 17 17 18 17 17 17 16 16 17 20 21 22 21 21 20 19 19 19 18 16 18 19 19 17 17 17 17 17 17 17 17 17 17 18 18 18 17 17 17 18 19
10 11 10 11 12 12 13 14 13 13 13 15 15 16 18 17 19 20 19 17 19 20 21 20 20 19 18 19 18 18 19 19 20 19 19 21 19 18 18 18 18 19 19 20 20 20 19 19 19 18 18 18 17 16
12 10 15 13 14 14 15 15 14 14 14 16 16 16 18 22 22 20 19 21 21 20 19 20 19 19 20 20 19 19 18 19 19 20 20 20 22 22 21 20 20 20 20 20 20 21 20 19 18 18 19 18 17 18
11 12 14 14 17 18 19 15 17 15 19 19 17 17 19 20 18 17 21 19 19 17 17 17 18 18 19 19 19 19 19 19 20 21 21 22 22 22 22 22 21 21 21 20 19 20 21 20 20 21 21 20 22 23
10 15 18 20 18 22 20 19 15 16 18 19 19 20 17 21 18 21 21 19 18 17 17 17 16 18 18 18 19 19 18 18 19 19 19 20 21 21 21 21 21 21 21 20 21 23 23 24 24 23 26 28 28 30
15 17 19 21 20 20 23 23 22 19 23 23 21 18 20 20 24 24 23 21 20 21 20 18 18 19 21 20 20 19 18 18 20 21 20 19 21 20 21 21 21 21 21 24 27 29 30 33 33 34 31 33 29 29
18 16 16 22 20 20 22 23 23 23 24 22 19 17 22 25 27 25 20 23 21 22 21 21 22 20 19 18 19 19 18 17 18 20 20 19 20 25 26 25 24 22 23 29 31 31 30 31 33 31 31 29 30 33
18 19 15 14 17 18 21 23 21 22 22 19 23 26 26 30 28 21 17 18 18 18 17 18 18 19 19 18 18 18 18 18 19 19 19 20 20 21 24 27 26 23 22 26 28 29 29 29 30 31 32 35 35 33
14 18 22 22 21 20 24 25 25 23 22 17 23 29 31 30 26 20 17 16 16 17 17 18 19 20 21 21 20 20 20 22 21 22 23 23 24 26 27 28 27 22 29 32 31 31 31 29 28 29 30 30 28 31
20 22 20 24 23 21 20 23 23 19 18 23 29 27 25 21 21 21 17 16 16 18 21 21 21 23 24 24 25 25 26 28 28 30 33 33 32 27 27 30 32 33 35 32 25 22 22 24 25 28 29 29 27 26
21 23 23 26 24 23 23 24 26 27 22 24 21 20 21 21 19 17 18 19 20 24 29 30 31 28 30 29 29 26 27 31 31 29 32 32 29 28 30 32 32 32 33 35 35 33 28 33 31 34 34 32 33 31
23 23 23 23 21 22 23 26 28 27 28 27 28 28 27 24 22 20 21 23 25 27 26 28 28 32 30 31 32 32 30 30 32 30 30 32 32 33 34 34 34 36 36 37 37 37 36 36 38 37 37 35 33 32
25 27 24 24 20 20 21 20 27 26 27 28 27 28 29 29 29 25 22 25 28 28 29 32 30 27 29 30 33 34 30 32 32 32 32 31 31 32 34 35 37 38 37 37 38 38 37 36 36 37 39 37 35 34
28 29 28 25 21 20 20 19 21 23 25 25 26 26 27 28 28 24 22 28 28 29 30 31 32 32 28 30 31 33 29 33 34 27 26 26 28 29 34 36 37 37 36 37 38 38 36 35 36 37 37 37 36 35